EZY660 LKPR-EFHK

Flight info

Callsign EZY660
Flight time 2h 1m
Altitude 39000
Route ARTUP DCT TOMTI DCT DIMEX DCT RIVDI DCT PENOR DCT ALAMI DCT OKEVU DCT EVADI Y370 DIVAM
Aircraft A20N/M-SDE2E3FGHIRWXY/LB1

Departure

Time 2026-04-23 16:59
Airport Václav Havel Airport Prague (LKPR)

Arrival

Time 2026-04-23 19:00
Airport Helsinki Vantaa Airport (EFHK)
Time Latitude Longitude Altitude Speed Heading
2026-04-23 16:36 50.10484 14.26472 1192 ft 0 kts 31°
2026-04-23 16:48 50.10479 14.26467 1192 ft 2 kts 31°
2026-04-23 16:48 50.10465 14.26454 1193 ft 2 kts 31°
2026-04-23 16:48 50.10450 14.26446 1193 ft 2 kts 328°
2026-04-23 16:48 50.10439 14.26465 1194 ft 2 kts 304°
2026-04-23 16:49 50.10433 14.26477 1194 ft 1 kts 304°
2026-04-23 16:49 50.10432 14.26480 1194 ft 0 kts 304°
2026-04-23 16:50 50.10433 14.26477 1194 ft 1 kts 304°
2026-04-23 16:50 50.10451 14.26438 1193 ft 8 kts 305°
2026-04-23 16:50 50.10492 14.26345 1191 ft 13 kts 304°
2026-04-23 16:50 50.10525 14.26216 1190 ft 13 kts 249°
2026-04-23 16:51 50.10470 14.26142 1193 ft 9 kts 212°
2026-04-23 16:51 50.10408 14.26168 1194 ft 13 kts 130°
2026-04-23 16:51 50.10344 14.26298 1197 ft 18 kts 127°
2026-04-23 16:51 50.10254 14.26489 1200 ft 26 kts 126°
2026-04-23 16:52 50.10144 14.26719 1207 ft 26 kts 126°
2026-04-23 16:52 50.10043 14.26920 1212 ft 22 kts 127°
2026-04-23 16:52 50.09944 14.27128 1213 ft 26 kts 127°
2026-04-23 16:52 50.09832 14.27343 1215 ft 25 kts 135°
2026-04-23 16:53 50.09735 14.27495 1217 ft 14 kts 135°
2026-04-23 16:53 50.09674 14.27589 1220 ft 11 kts 135°
2026-04-23 16:53 50.09629 14.27642 1224 ft 5 kts 163°
2026-04-23 16:53 50.09609 14.27639 1225 ft 2 kts 196°
2026-04-23 16:54 50.09587 14.27618 1227 ft 5 kts 214°
2026-04-23 16:54 50.09558 14.27586 1229 ft 4 kts 216°
2026-04-23 16:54 50.09548 14.27575 1229 ft 0 kts 217°
2026-04-23 16:57 50.09527 14.27550 1230 ft 8 kts 217°
2026-04-23 16:57 50.09453 14.27464 1228 ft 18 kts 218°
2026-04-23 16:57 50.09440 14.27355 1226 ft 17 kts 301°
2026-04-23 16:58 50.09524 14.27177 1219 ft 20 kts 307°
2026-04-23 16:58 50.09711 14.26791 1214 ft 75 kts 307°
2026-04-23 16:58 50.09983 14.26232 1195 ft 118 kts 308°
2026-04-23 16:58 50.10571 14.25028 1406 ft 146 kts 308°
2026-04-23 16:59 50.11187 14.23765 2004 ft 148 kts 310°
2026-04-23 16:59 50.11806 14.22466 2653 ft 149 kts 310°
2026-04-23 16:59 50.12458 14.21115 3164 ft 170 kts 310°
2026-04-23 16:59 50.13225 14.19539 3477 ft 198 kts 310°
2026-04-23 17:00 50.14167 14.17858 3965 ft 216 kts 320°
2026-04-23 17:00 50.15561 14.16694 4332 ft 240 kts 349°
2026-04-23 17:00 50.17231 14.16994 5143 ft 249 kts 24°
2026-04-23 17:00 50.18661 14.18565 6118 ft 252 kts 39°
2026-04-23 17:01 50.19963 14.20410 7078 ft 254 kts 41°
2026-04-23 17:01 50.21256 14.22305 7980 ft 257 kts 41°
2026-04-23 17:01 50.22575 14.24226 8899 ft 261 kts 41°
2026-04-23 17:01 50.23898 14.26136 9803 ft 264 kts 40°
2026-04-23 17:02 50.25267 14.28098 10601 ft 273 kts 40°
2026-04-23 17:02 50.26728 14.30184 10964 ft 296 kts 40°
2026-04-23 17:02 50.28313 14.32443 11304 ft 319 kts 41°
2026-04-23 17:02 50.30007 14.34860 11704 ft 337 kts 41°
2026-04-23 17:03 50.31742 14.37340 12420 ft 345 kts 41°
2026-04-23 17:03 50.33522 14.39888 13301 ft 348 kts 41°
2026-04-23 17:03 50.35318 14.42461 14146 ft 352 kts 41°
2026-04-23 17:03 50.37137 14.45068 14883 ft 356 kts 41°
2026-04-23 17:04 50.38981 14.47714 15641 ft 360 kts 42°
2026-04-23 17:04 50.40811 14.50341 16362 ft 363 kts 42°
2026-04-23 17:04 50.42686 14.53038 17119 ft 366 kts 42°
2026-04-23 17:04 50.44576 14.55758 17842 ft 370 kts 43°
2026-04-23 17:05 50.46486 14.58511 18517 ft 374 kts 43°
2026-04-23 17:05 50.48414 14.61294 19121 ft 377 kts 43°
2026-04-23 17:05 50.50334 14.64066 19740 ft 380 kts 43°
2026-04-23 17:05 50.52286 14.66888 20361 ft 383 kts 43°
2026-04-23 17:06 50.54255 14.69739 20958 ft 386 kts 43°
2026-04-23 17:06 50.56246 14.72624 21547 ft 389 kts 44°
2026-04-23 17:06 50.58244 14.75523 22137 ft 392 kts 44°
2026-04-23 17:06 50.60233 14.78413 22696 ft 394 kts 44°
2026-04-23 17:07 50.62260 14.81361 23232 ft 397 kts 44°
2026-04-23 17:07 50.64301 14.84334 23780 ft 400 kts 44°
2026-04-23 17:07 50.66349 14.87320 24222 ft 402 kts 44°
2026-04-23 17:07 50.68393 14.90301 24642 ft 405 kts 45°
2026-04-23 17:08 50.70476 14.93321 25062 ft 407 kts 45°
2026-04-23 17:08 50.72582 14.96360 25478 ft 409 kts 45°
2026-04-23 17:08 50.74665 14.99361 25882 ft 411 kts 45°
2026-04-23 17:08 50.76799 15.02436 26164 ft 417 kts 45°
2026-04-23 17:09 50.78959 15.05558 26347 ft 424 kts 45°
2026-04-23 17:09 50.81149 15.08727 26679 ft 427 kts 45°
2026-04-23 17:09 50.83338 15.11897 27182 ft 426 kts 45°
2026-04-23 17:09 50.85517 15.15055 27744 ft 423 kts 45°
2026-04-23 17:10 50.87682 15.18198 28280 ft 421 kts 46°
2026-04-23 17:10 50.89810 15.21292 28861 ft 418 kts 46°
2026-04-23 17:10 50.91947 15.24404 29388 ft 416 kts 46°
2026-04-23 17:10 50.94082 15.27513 29867 ft 415 kts 45°
2026-04-23 17:11 50.96316 15.30444 30319 ft 416 kts 42°
2026-04-23 17:11 50.98612 15.33235 30727 ft 416 kts 39°
2026-04-23 17:11 51.01087 15.35642 31106 ft 419 kts 32°
2026-04-23 17:11 51.03771 15.37493 31488 ft 423 kts 24°
2026-04-23 17:12 51.06603 15.38854 31878 ft 424 kts 20°
2026-04-23 17:12 51.09416 15.40015 32270 ft 423 kts 19°
2026-04-23 17:12 51.12275 15.41090 32653 ft 422 kts 18°
2026-04-23 17:12 51.15138 15.42122 33029 ft 421 kts 18°
2026-04-23 17:13 51.17993 15.43142 33384 ft 419 kts 18°
2026-04-23 17:13 51.20840 15.44166 33755 ft 418 kts 18°
2026-04-23 17:13 51.23675 15.45197 34103 ft 416 kts 18°
2026-04-23 17:13 51.26463 15.46223 34375 ft 415 kts 18°
2026-04-23 17:14 51.29276 15.47268 34590 ft 415 kts 18°
2026-04-23 17:14 51.32104 15.48325 34813 ft 416 kts 18°
2026-04-23 17:14 51.34922 15.49381 35016 ft 416 kts 18°
2026-04-23 17:14 51.37755 15.50445 35233 ft 416 kts 18°
2026-04-23 17:15 51.40539 15.51491 35433 ft 416 kts 18°
2026-04-23 17:15 51.43359 15.52551 35657 ft 416 kts 18°
2026-04-23 17:15 51.46186 15.53615 35861 ft 416 kts 17°
2026-04-23 17:15 51.49008 15.54677 36062 ft 416 kts 17°
2026-04-23 17:16 51.51830 15.55741 36244 ft 416 kts 17°
2026-04-23 17:16 51.54626 15.56797 36458 ft 416 kts 17°
2026-04-23 17:16 51.57448 15.57863 36649 ft 416 kts 17°
2026-04-23 17:16 51.60277 15.58934 36833 ft 416 kts 17°
2026-04-23 17:17 51.63109 15.60008 37021 ft 416 kts 17°
2026-04-23 17:17 51.65899 15.61066 37216 ft 416 kts 17°
2026-04-23 17:17 51.68712 15.62135 37405 ft 416 kts 16°
2026-04-23 17:17 51.71530 15.63207 37579 ft 416 kts 16°
2026-04-23 17:18 51.77172 15.65357 37950 ft 415 kts 16°
2026-04-23 17:18 51.79986 15.66432 38115 ft 415 kts 16°
2026-04-23 17:18 51.82800 15.67508 38273 ft 415 kts 16°
2026-04-23 17:19 51.85576 15.68571 38432 ft 415 kts 15°
2026-04-23 17:19 51.88381 15.69646 38606 ft 414 kts 15°
2026-04-23 17:19 51.91188 15.70723 38765 ft 414 kts 15°
2026-04-23 17:19 51.93994 15.71802 38877 ft 414 kts 15°
2026-04-23 17:20 51.96807 15.72885 38967 ft 414 kts 15°
2026-04-23 17:20 52.02397 15.75041 39125 ft 416 kts 15°
2026-04-23 17:21 52.08037 15.77221 39127 ft 415 kts 15°
2026-04-23 17:21 52.16446 15.80481 39129 ft 413 kts 15°
2026-04-23 17:22 52.24813 15.83740 39130 ft 413 kts 15°
2026-04-23 17:23 52.33174 15.87007 39127 ft 412 kts 15°
2026-04-23 17:24 52.41538 15.90289 39119 ft 411 kts 15°
2026-04-23 17:24 52.49862 15.93568 39124 ft 411 kts 15°
2026-04-23 17:25 52.58209 15.96869 39124 ft 410 kts 15°
2026-04-23 17:26 52.69169 16.01233 39669 ft 385 kts 12°
2026-04-23 17:27 52.74257 16.03266 40409 ft 372 kts 12°
2026-04-23 17:27 52.76793 16.04275 40262 ft 378 kts 12°
2026-04-23 17:27 52.79385 16.05307 40026 ft 387 kts 12°
2026-04-23 17:27 52.82001 16.06350 39780 ft 393 kts 12°
2026-04-23 17:28 52.84663 16.07415 39536 ft 392 kts 12°
2026-04-23 17:28 52.87301 16.08475 39307 ft 389 kts 12°
2026-04-23 17:28 52.89927 16.09531 39139 ft 387 kts 12°
2026-04-23 17:28 52.92538 16.10583 39119 ft 386 kts 12°
2026-04-23 17:29 52.97752 16.12686 39119 ft 385 kts 12°
2026-04-23 17:30 53.04683 16.15488 39120 ft 384 kts 12°
2026-04-23 17:30 53.13340 16.19002 39118 ft 384 kts 12°
2026-04-23 17:31 53.18507 16.21106 39120 ft 384 kts 12°
2026-04-23 17:31 53.23710 16.23230 39118 ft 384 kts 12°
2026-04-23 17:32 53.28906 16.25357 39118 ft 384 kts 12°
2026-04-23 17:32 53.34075 16.27477 39115 ft 384 kts 12°
2026-04-23 17:33 53.39263 16.29611 39119 ft 383 kts 12°
2026-04-23 17:33 53.43573 16.31388 39115 ft 383 kts 12°
2026-04-23 17:34 53.46252 16.32495 39121 ft 383 kts 12°
2026-04-23 17:35 53.54023 16.35712 39120 ft 383 kts 12°
2026-04-23 17:35 53.61790 16.38940 39122 ft 383 kts 12°
2026-04-23 17:36 53.66937 16.41086 39117 ft 383 kts 12°
2026-04-23 17:36 53.72111 16.43248 39116 ft 382 kts 12°
2026-04-23 17:37 53.77275 16.45412 39118 ft 382 kts 12°
2026-04-23 17:38 53.85030 16.48672 39118 ft 382 kts 12°
2026-04-23 17:38 53.90161 16.50836 39120 ft 382 kts 12°
2026-04-23 17:39 53.95334 16.53022 39118 ft 382 kts 12°
2026-04-23 17:39 54.00505 16.55214 39117 ft 382 kts 12°
2026-04-23 17:40 54.05646 16.57399 39124 ft 382 kts 12°
2026-04-23 17:40 54.10811 16.59598 39118 ft 382 kts 12°
2026-04-23 17:41 54.15958 16.61797 39114 ft 382 kts 12°
2026-04-23 17:41 54.23675 16.65103 39115 ft 382 kts 12°
2026-04-23 17:42 54.31440 16.68443 39117 ft 383 kts 12°
2026-04-23 17:43 54.36568 16.70656 39111 ft 382 kts 11°
2026-04-23 17:43 54.41736 16.72891 39112 ft 382 kts 12°
2026-04-23 17:44 54.46904 16.75133 39108 ft 382 kts 11°
2026-04-23 17:44 54.54635 16.78498 39107 ft 382 kts 11°
2026-04-23 17:45 54.62346 16.81866 39105 ft 382 kts 11°
2026-04-23 17:46 54.70081 16.85259 39100 ft 381 kts 11°
2026-04-23 17:46 54.75236 16.87528 39100 ft 381 kts 11°
2026-04-23 17:47 54.80337 16.89778 39094 ft 380 kts 11°
2026-04-23 17:48 54.87189 16.92810 39093 ft 380 kts 11°
2026-04-23 17:48 54.92306 16.95082 39091 ft 380 kts 11°
2026-04-23 17:49 54.97431 16.97363 39090 ft 380 kts 11°
2026-04-23 17:49 55.02521 16.99634 39093 ft 379 kts 11°
2026-04-23 17:50 55.07641 17.01925 39091 ft 379 kts 11°
2026-04-23 17:50 55.15293 17.05360 39089 ft 379 kts 11°
2026-04-23 17:51 55.20451 17.07306 39087 ft 377 kts
2026-04-23 17:52 55.28261 17.09018 39086 ft 377 kts
2026-04-23 17:52 55.36059 17.10548 39080 ft 377 kts
2026-04-23 17:53 55.43887 17.12103 39077 ft 377 kts
2026-04-23 17:54 55.49087 17.13149 39079 ft 377 kts
2026-04-23 17:54 55.56913 17.14729 39076 ft 377 kts
2026-04-23 17:55 55.64622 17.17420 39082 ft 383 kts 17°
2026-04-23 17:56 55.69458 17.21586 39076 ft 388 kts 22°
2026-04-23 17:56 55.76523 17.28604 39077 ft 389 kts 24°
2026-04-23 17:57 55.81241 17.33370 39080 ft 390 kts 23°
2026-04-23 17:58 55.88339 17.40497 39076 ft 390 kts 23°
2026-04-23 17:58 55.93050 17.45226 39075 ft 391 kts 23°
2026-04-23 17:59 55.97794 17.50001 39079 ft 391 kts 23°
2026-04-23 17:59 56.02535 17.54787 39075 ft 391 kts 24°
2026-04-23 18:00 56.07286 17.59599 39070 ft 392 kts 24°
2026-04-23 18:00 56.12008 17.64395 39073 ft 392 kts 24°
2026-04-23 18:01 56.16769 17.69244 39073 ft 393 kts 24°
2026-04-23 18:01 56.21502 17.74079 39072 ft 393 kts 24°
2026-04-23 18:02 56.26268 17.78961 39071 ft 393 kts 24°
2026-04-23 18:02 56.31022 17.83845 39073 ft 393 kts 24°
2026-04-23 18:03 56.35747 17.88713 39069 ft 393 kts 24°
2026-04-23 18:03 56.40500 17.93624 39073 ft 393 kts 24°
2026-04-23 18:04 56.45221 17.98516 39073 ft 392 kts 24°
2026-04-23 18:04 56.49967 18.03450 39068 ft 392 kts 24°
2026-04-23 18:05 56.54692 18.08375 39066 ft 391 kts 24°
2026-04-23 18:05 56.59378 18.13274 39066 ft 390 kts 24°
2026-04-23 18:06 56.64087 18.18212 39066 ft 390 kts 24°
2026-04-23 18:06 56.68795 18.23162 39063 ft 389 kts 24°
2026-04-23 18:07 56.73476 18.28099 39062 ft 388 kts 24°
2026-04-23 18:07 56.78123 18.33014 39060 ft 388 kts 24°
2026-04-23 18:08 56.82006 18.37131 39060 ft 388 kts 24°
2026-04-23 18:08 56.87464 18.42935 39060 ft 388 kts 24°
2026-04-23 18:09 56.92136 18.47919 39061 ft 388 kts 24°
2026-04-23 18:09 56.96785 18.52893 39057 ft 388 kts 24°
2026-04-23 18:10 57.01461 18.57911 39057 ft 389 kts 24°
2026-04-23 18:10 57.06099 18.62903 39055 ft 389 kts 24°
2026-04-23 18:11 57.10773 18.67948 39055 ft 389 kts 25°
2026-04-23 18:11 57.15451 18.73013 39053 ft 390 kts 25°
2026-04-23 18:12 57.20099 18.78060 39046 ft 390 kts 25°
2026-04-23 18:12 57.24787 18.83165 39051 ft 390 kts 25°
2026-04-23 18:13 57.29474 18.88285 39052 ft 391 kts 25°
2026-04-23 18:13 57.34131 18.93388 39047 ft 391 kts 25°
2026-04-23 18:14 57.38826 18.98547 39045 ft 391 kts 25°
2026-04-23 18:14 57.43483 19.03681 39046 ft 391 kts 25°
2026-04-23 18:15 57.48162 19.08854 39044 ft 391 kts 25°
2026-04-23 18:15 57.52815 19.14014 39039 ft 391 kts 25°
2026-04-23 18:16 57.57488 19.19211 39041 ft 391 kts 25°
2026-04-23 18:16 57.62160 19.24423 39041 ft 390 kts 25°
2026-04-23 18:17 57.69124 19.32222 39036 ft 390 kts 25°
2026-04-23 18:17 57.73774 19.37449 39033 ft 389 kts 25°
2026-04-23 18:18 57.78419 19.42686 39030 ft 389 kts 26°
2026-04-23 18:18 57.83054 19.47928 39028 ft 388 kts 25°
2026-04-23 18:19 57.87658 19.53150 39024 ft 388 kts 26°
2026-04-23 18:19 57.92279 19.58407 39021 ft 388 kts 26°
2026-04-23 18:20 57.96890 19.63670 39019 ft 388 kts 26°
2026-04-23 18:20 58.01473 19.68915 39019 ft 388 kts 26°
2026-04-23 18:21 58.06087 19.74212 39015 ft 388 kts 26°
2026-04-23 18:21 58.10696 19.79521 39012 ft 388 kts 26°
2026-04-23 18:22 58.15306 19.84846 39011 ft 388 kts 26°
2026-04-23 18:22 58.19883 19.90150 39012 ft 388 kts 26°
2026-04-23 18:23 58.26786 19.98180 39009 ft 388 kts 26°
2026-04-23 18:24 58.33695 20.06254 39003 ft 388 kts 26°
2026-04-23 18:25 58.40570 20.14326 39006 ft 388 kts 26°
2026-04-23 18:25 58.45175 20.19754 39003 ft 388 kts 26°
2026-04-23 18:26 58.49748 20.25159 38997 ft 388 kts 26°
2026-04-23 18:26 58.54352 20.30620 38998 ft 389 kts 26°
2026-04-23 18:27 58.58953 20.36094 38998 ft 389 kts 26°
2026-04-23 18:27 58.63525 20.41550 38991 ft 389 kts 26°
2026-04-23 18:28 58.68128 20.47060 38993 ft 389 kts 26°
2026-04-23 18:28 58.72736 20.52594 38986 ft 389 kts 26°
2026-04-23 18:29 58.77309 20.58103 38987 ft 390 kts 26°
2026-04-23 18:29 58.81917 20.63673 38988 ft 390 kts 26°
2026-04-23 18:30 58.86494 20.69222 38983 ft 390 kts 26°
2026-04-23 18:30 58.91103 20.74828 38988 ft 391 kts 26°
2026-04-23 18:31 58.95717 20.80457 38976 ft 391 kts 26°
2026-04-23 18:31 59.00323 20.86095 38975 ft 392 kts 26°
2026-04-23 18:32 59.04639 20.92619 38972 ft 401 kts 37°
2026-04-23 18:32 59.08219 21.01173 38973 ft 412 kts 47°
2026-04-23 18:33 59.11393 21.10540 38967 ft 415 kts 49°
2026-04-23 18:33 59.14508 21.19961 38968 ft 417 kts 49°
2026-04-23 18:34 59.17643 21.29502 38964 ft 417 kts 49°
2026-04-23 18:34 59.20751 21.39004 38960 ft 418 kts 49°
2026-04-23 18:35 59.23873 21.48591 38957 ft 418 kts 49°
2026-04-23 18:35 59.26989 21.58194 38736 ft 418 kts 49°
2026-04-23 18:35 59.28020 21.61384 38343 ft 418 kts 49°
2026-04-23 18:36 59.29576 21.66201 37604 ft 419 kts 49°
2026-04-23 18:36 59.31132 21.71028 36935 ft 419 kts 49°
2026-04-23 18:36 59.32688 21.75869 36321 ft 418 kts 49°
2026-04-23 18:36 59.34235 21.80692 35706 ft 417 kts 49°
2026-04-23 18:37 59.35774 21.85496 35105 ft 416 kts 49°
2026-04-23 18:37 59.37307 21.90297 34510 ft 414 kts 48°
2026-04-23 18:37 59.38811 21.95013 33924 ft 412 kts 48°
2026-04-23 18:37 59.40336 21.99803 33206 ft 412 kts 48°
2026-04-23 18:38 59.41860 22.04595 32392 ft 412 kts 48°
2026-04-23 18:38 59.43382 22.09389 31585 ft 414 kts 48°
2026-04-23 18:38 59.44909 22.14211 30766 ft 415 kts 48°
2026-04-23 18:38 59.46415 22.18979 29955 ft 416 kts 48°
2026-04-23 18:39 59.47946 22.23836 28942 ft 418 kts 49°
2026-04-23 18:39 59.49485 22.28727 27946 ft 421 kts 49°
2026-04-23 18:39 59.51032 22.33656 27066 ft 421 kts 49°
2026-04-23 18:39 59.52569 22.38571 26263 ft 419 kts 49°
2026-04-23 18:40 59.54078 22.43404 25434 ft 419 kts 49°
2026-04-23 18:40 59.55605 22.48301 24554 ft 420 kts 49°
2026-04-23 18:40 59.57142 22.53238 23701 ft 420 kts 50°
2026-04-23 18:40 59.58655 22.58119 23041 ft 414 kts 50°
2026-04-23 18:41 59.60145 22.62943 22378 ft 408 kts 50°
2026-04-23 18:41 59.61610 22.67689 21748 ft 401 kts 50°
2026-04-23 18:41 59.63052 22.72370 21142 ft 395 kts 50°
2026-04-23 18:41 59.64473 22.76986 20522 ft 390 kts 50°
2026-04-23 18:42 59.65857 22.81486 19913 ft 386 kts 50°
2026-04-23 18:42 59.67258 22.86045 19296 ft 385 kts 50°
2026-04-23 18:42 59.68645 22.90569 18675 ft 383 kts 50°
2026-04-23 18:42 59.70026 22.95085 18006 ft 381 kts 51°
2026-04-23 18:43 59.71359 22.99457 17362 ft 378 kts 51°
2026-04-23 18:43 59.72712 23.03901 16761 ft 375 kts 51°
2026-04-23 18:43 59.74037 23.08263 16159 ft 372 kts 51°
2026-04-23 18:43 59.75369 23.12653 15531 ft 370 kts 51°
2026-04-23 18:44 59.76690 23.17016 14919 ft 367 kts 52°
2026-04-23 18:44 59.77999 23.21348 14315 ft 365 kts 52°
2026-04-23 18:44 59.79298 23.25658 13709 ft 362 kts 52°
2026-04-23 18:44 59.80587 23.29939 13054 ft 360 kts 53°
2026-04-23 18:45 59.81868 23.34202 12440 ft 357 kts 53°
2026-04-23 18:45 59.83135 23.38429 11835 ft 355 kts 53°
2026-04-23 18:45 59.84365 23.42538 11260 ft 352 kts 53°
2026-04-23 18:45 59.85621 23.46743 10829 ft 344 kts 53°
2026-04-23 18:46 59.86805 23.50734 10700 ft 325 kts 53°
2026-04-23 18:46 59.87925 23.54515 10590 ft 308 kts 53°
2026-04-23 18:46 59.88989 23.58107 10480 ft 293 kts 53°
2026-04-23 18:46 59.90002 23.61524 10361 ft 279 kts 53°
2026-04-23 18:47 59.90969 23.64791 10243 ft 268 kts 52°
2026-04-23 18:47 59.91890 23.67896 10128 ft 259 kts 52°
2026-04-23 18:47 59.92808 23.70991 9905 ft 255 kts 52°
2026-04-23 18:47 59.93698 23.73993 9603 ft 253 kts 52°
2026-04-23 18:48 59.94591 23.77008 9323 ft 252 kts 53°
2026-04-23 18:48 59.95481 23.80025 9050 ft 251 kts 53°
2026-04-23 18:48 59.96367 23.83031 8787 ft 250 kts 53°
2026-04-23 18:48 59.97249 23.86031 8512 ft 250 kts 53°
2026-04-23 18:49 59.98128 23.89028 8247 ft 249 kts 53°
2026-04-23 18:49 59.98992 23.91976 7976 ft 248 kts 54°
2026-04-23 18:49 59.99863 23.94952 7711 ft 248 kts 54°
2026-04-23 18:49 60.00734 23.97933 7441 ft 247 kts 54°
2026-04-23 18:50 60.01308 23.99899 7267 ft 247 kts 54°
2026-04-23 18:50 60.02463 24.03861 6913 ft 246 kts 54°
2026-04-23 18:50 60.03314 24.06786 6659 ft 246 kts 55°
2026-04-23 18:50 60.04182 24.09771 6382 ft 245 kts 55°
2026-04-23 18:51 60.05027 24.12684 6128 ft 244 kts 55°
2026-04-23 18:51 60.05876 24.15616 5961 ft 244 kts 56°
2026-04-23 18:51 60.06729 24.18559 5737 ft 244 kts 56°
2026-04-23 18:51 60.07577 24.21494 5474 ft 243 kts 56°
2026-04-23 18:52 60.08426 24.24435 5205 ft 242 kts 56°
2026-04-23 18:52 60.09271 24.27366 4950 ft 242 kts 56°
2026-04-23 18:52 60.10103 24.30253 4698 ft 242 kts 56°
2026-04-23 18:52 60.10937 24.33153 4434 ft 241 kts 56°
2026-04-23 18:53 60.11778 24.36081 4161 ft 240 kts 56°
2026-04-23 18:53 60.12613 24.38989 3914 ft 240 kts 56°
2026-04-23 18:53 60.13166 24.40920 3732 ft 239 kts 56°
2026-04-23 18:53 60.13796 24.43119 3549 ft 238 kts 57°
2026-04-23 18:54 60.14619 24.45994 3288 ft 237 kts 57°
2026-04-23 18:54 60.15439 24.48865 3038 ft 236 kts 57°
2026-04-23 18:54 60.16244 24.51688 2788 ft 235 kts 57°
2026-04-23 18:54 60.17054 24.54527 2529 ft 234 kts 57°
2026-04-23 18:55 60.17867 24.57382 2334 ft 239 kts 57°
2026-04-23 18:55 60.18677 24.60232 2301 ft 226 kts 57°
2026-04-23 18:55 60.19428 24.62889 2308 ft 210 kts 57°
2026-04-23 18:55 60.20105 24.65294 2328 ft 191 kts 57°
2026-04-23 18:56 60.20571 24.66763 2308 ft 180 kts 49°
2026-04-23 18:56 60.21645 24.69259 2309 ft 177 kts 43°
2026-04-23 18:56 60.22484 24.71066 2310 ft 177 kts 44°
2026-04-23 18:56 60.23315 24.72894 2301 ft 177 kts 44°
2026-04-23 18:57 60.24149 24.74715 2294 ft 174 kts 44°
2026-04-23 18:57 60.24930 24.76429 2125 ft 159 kts 44°
2026-04-23 18:57 60.25666 24.78039 1868 ft 154 kts 44°
2026-04-23 18:57 60.26382 24.79604 1646 ft 154 kts 44°
2026-04-23 18:58 60.27109 24.81196 1425 ft 154 kts 44°
2026-04-23 18:58 60.27832 24.82783 1202 ft 153 kts 44°
2026-04-23 18:58 60.28549 24.84356 976 ft 153 kts 45°
2026-04-23 18:58 60.29225 24.85843 780 ft 151 kts 45°
2026-04-23 18:59 60.29941 24.87402 581 ft 151 kts 46°
2026-04-23 18:59 60.30639 24.88967 393 ft 150 kts 45°
2026-04-23 18:59 60.31341 24.90490 199 ft 149 kts 46°
2026-04-23 18:59 60.31994 24.91925 163 ft 116 kts 47°
2026-04-23 19:00 60.32418 24.92859 164 ft 64 kts 47°
2026-04-23 19:00 60.32689 24.93454 174 ft 54 kts 49°
2026-04-23 19:00 60.32936 24.93998 180 ft 51 kts 47°
2026-04-23 19:00 60.33049 24.94403 174 ft 20 kts 91°
2026-04-23 19:01 60.33046 24.94568 166 ft 0 kts 94°
2026-04-23 19:01 60.33045 24.94596 166 ft 5 kts 98°
2026-04-23 19:01 60.33040 24.94702 165 ft 10 kts 87°
2026-04-23 19:01 60.33065 24.94857 164 ft 14 kts 52°
2026-04-23 19:02 60.33101 24.94971 164 ft 16 kts 72°
2026-04-23 19:02 60.33154 24.95270 164 ft 19 kts 49°
2026-04-23 19:02 60.33208 24.95493 164 ft 18 kts 106°
2026-04-23 19:02 60.33123 24.95673 164 ft 18 kts 138°
2026-04-23 19:03 60.33023 24.95824 164 ft 18 kts 150°
2026-04-23 19:03 60.32912 24.95954 164 ft 19 kts 149°
2026-04-23 19:03 60.32799 24.96088 164 ft 19 kts 150°
2026-04-23 19:03 60.32683 24.96222 164 ft 19 kts 150°
2026-04-23 19:04 60.32602 24.96317 164 ft 7 kts 150°
2026-04-23 19:04 60.32559 24.96366 164 ft 7 kts 150°
2026-04-23 19:04 60.32540 24.96389 164 ft 4 kts 149°
2026-04-23 19:04 60.32483 24.96456 164 ft 18 kts 149°
2026-04-23 19:05 60.32365 24.96595 165 ft 17 kts 150°
2026-04-23 19:05 60.32311 24.96657 164 ft 0 kts 150°
2026-04-23 19:05 60.32286 24.96686 164 ft 11 kts 150°
2026-04-23 19:06 60.32194 24.96793 164 ft 18 kts 150°
2026-04-23 19:06 60.32093 24.96911 164 ft 13 kts 150°
2026-04-23 19:06 60.32026 24.96988 164 ft 11 kts 150°
2026-04-23 19:06 60.31956 24.97064 164 ft 11 kts 154°
2026-04-23 19:07 60.31906 24.97112 164 ft 4 kts 165°
2026-04-23 19:07 60.31890 24.97095 164 ft 2 kts 230°
2026-04-23 19:07 60.31882 24.97068 164 ft 2 kts 241°
2026-04-23 19:07 60.31873 24.97036 164 ft 3 kts 241°
2026-04-23 19:08 60.31866 24.97010 164 ft 1 kts 242°
2026-04-23 19:08 60.31863 24.96998 164 ft 0 kts 242°